This is the latest recevied weather packets stored in our database for station/object SP3WRO-2. If no packets are shown the sender has not sent any weather packets the latest 10 day(s).
| Time | Temp. | Humidity | Pressure | Rain* | Wind** | Luminosity | Snow |
|---|---|---|---|---|---|---|---|
| 1788056054 | 12.78° C | 95% | 1009.4 hPa | 1.78 mm | - | - | - |
| 1788055154 | 12.78° C | 95% | 1009.6 hPa | 1.78 mm | - | - | - |
| 1788054252 | 12.22° C | 95% | 1009.5 hPa | 1.78 mm | - | - | - |
| 1788053351 | 12.22° C | 95% | 1009.7 hPa | 1.78 mm | - | - | - |
| 1788052450 | 12.78° C | 95% | 1009.8 hPa | 1.78 mm | - | - | - |
| 1788051549 | 12.78° C | 94% | 1009.9 hPa | 1.78 mm | - | - | - |
| 1788050648 | 12.22° C | 95% | 1010 hPa | 1.78 mm | - | - | - |
| 1788049747 | 12.78° C | 94% | 1010 hPa | 1.78 mm | - | - | - |
| 1788048846 | 12.78° C | 94% | 1010 hPa | 1.78 mm | - | - | - |
| 1788047946 | 12.78° C | 95% | 1010 hPa | 1.78 mm | - | - | - |
| 1788047044 | 12.78° C | 95% | 1010 hPa | 1.78 mm | - | - | - |
| 1788046143 | 12.78° C | 94% | 1010 hPa | 1.78 mm | - | - | - |
| 1788045242 | 12.78° C | 94% | 1010 hPa | 1.78 mm | - | - | - |
| 1788044342 | 12.78° C | 94% | 1010 hPa | 1.78 mm | - | - | - |
| 1788043440 | 12.78° C | 94% | 1009.9 hPa | 1.78 mm | - | - | - |
| 1788042539 | 13.33° C | 93% | 1009.8 hPa | 1.78 mm | - | - | - |
| 1788041638 | 13.33° C | 93% | 1009.9 hPa | 1.78 mm | - | - | - |
| 1788040738 | 13.33° C | 94% | 1009.8 hPa | 1.78 mm | - | - | - |
| 1788039837 | 13.33° C | 93% | 1009.8 hPa | 1.78 mm | - | - | - |
| 1788038936 | 13.89° C | 92% | 1009.7 hPa | 1.78 mm | - | - | - |
| 1788038034 | 13.89° C | 92% | 1009.7 hPa | 1.78 mm | - | - | - |
| 1788037134 | 14.44° C | 92% | 1009.7 hPa | 1.78 mm | - | - | - |
| 1788036232 | 14.44° C | 93% | 1009.7 hPa | 1.78 mm | - | - | - |
| 1788035332 | 14.44° C | 93% | 1009.6 hPa | 1.78 mm | - | - | - |
| 1788034431 | 15° C | 92% | 1009.6 hPa | 1.78 mm | - | - | - |
* Rain latest 24 hours (hover to see other rain measurements)
** Current wind speed in m/s (hover to see current wind gust speed)